Location: Feura Bush
(42.5779°N, 73.8787°W)
Time: 08:28:48
(UTC+00:00)

Envisat - Visible Passes

Search period start: 11 October 2024 00:00
Search period end: 21 October 2024 00:00
Orbit: 762 x 764 km, 98.3° (Epoch: 10 October)

Date Brightness Start Highest point End Pass type
(mag) Time Alt. Az. Time Alt. Az. Time Alt. Az.
11 Oct 4.8 07:46:35 10° NNE 07:48:52 26° NNE 07:48:52 26° NNE visible
11 Oct 4.6 09:26:33 10° NNW 09:29:00 18° NW 09:29:00 18° NW visible
12 Oct 5.7 07:09:44 10° NE 07:10:48 15° NE 07:10:48 15° NE visible
12 Oct 4.2 08:48:14 10° N 08:50:56 28° NNW 08:50:56 28° NNW visible
13 Oct 4.5 08:10:29 10° NNE 08:12:52 28° NNE 08:12:52 28° NNE visible
13 Oct 4.9 09:51:51 10° NW 09:53:00 12° NW 09:53:00 12° NW visible
14 Oct 5.3 07:33:13 10° NNE 07:34:48 19° NE 07:34:48 19° NE visible
14 Oct 4.5 09:12:39 10° NNW 09:14:56 20° NW 09:14:56 20° NW visible
15 Oct 6.0 06:56:42 10° NE 06:56:44 10° NE 06:56:44 10° NE visible
15 Oct 4.5 08:34:34 10° N 08:36:52 26° N 08:36:52 26° N visible
16 Oct 5.0 07:56:58 10° NNE 07:58:47 22° NNE 07:58:47 22° NNE visible
16 Oct 4.9 09:37:27 10° NNW 09:38:55 14° NW 09:38:55 14° NW visible
17 Oct 5.7 07:19:54 10° NNE 07:20:42 14° NE 07:20:42 14° NE visible
17 Oct 4.6 08:58:50 10° N 09:00:50 21° NNW 09:00:50 21° NNW visible
18 Oct 4.8 08:20:56 10° N 08:22:45 22° N 08:22:45 22° N visible
19 Oct 5.4 07:43:30 10° NNE 07:44:40 17° NNE 07:44:40 17° NNE visible
19 Oct 4.8 09:23:22 10° NNW 09:24:49 16° NNW 09:24:49 16° NNW visible
20 Oct 4.8 08:45:05 10° N 08:46:43 20° N 08:46:43 20° N visible
